Wind_Speed
12 13 17 17 18 9 5 8 6 5 5 6 5 8 7 13 14 15 16 17 18 19 18 22 22 21 20 20 20 21 16 17 17 16 14 13 12 11 9 9 9 8 6 5
8 18 19 15 10 11 14 12 11 3 3 6 7 11 5 7 13 16 18 18 18 17 16 18 21 21 23 22 21 21 20 17 16 14 15 13 10 9 7 8 8 7 6 5
17 8 11 10 15 17 16 15 12 5 9 11 7 16 6 4 7 11 15 18 18 18 18 17 19 21 21 22 22 23 23 20 16 11 12 12 8 6 5 5 7 7 5 5
11 9 8 16 19 16 19 14 9 8 7 9 0 11 7 5 7 12 15 18 18 19 18 17 18 19 20 20 19 20 21 22 18 14 11 13 9 7 3 4 3 5 6 4
11 13 15 15 18 14 16 6 10 9 11 12 15 8 10 4 7 5 12 16 20 18 18 17 15 17 18 17 18 18 18 18 17 15 12 12 11 7 5 4 4 5 6 4
8 2 9 17 9 12 15 9 12 11 12 13 17 8 11 5 2 7 4 9 17 19 18 18 18 16 15 16 16 17 19 19 18 15 15 13 10 9 6 7 7 6 6 5
11 13 8 6 15 10 10 16 12 13 13 12 6 7 12 11 10 5 6 2 12 18 17 17 17 17 18 20 20 20 21 22 20 18 16 14 13 11 8 9 9 8 6 5
7 10 15 14 16 14 13 17 13 14 13 14 6 9 12 3 9 5 6 4 7 15 17 18 17 20 21 22 22 22 24 22 21 19 16 15 14 11 8 8 7 6 6 6
5 4 3 6 13 14 13 13 17 19 8 9 6 5 8 14 8 8 8 4 8 11 16 18 18 19 20 21 23 24 24 21 19 17 17 18 16 11 9 11 10 8 8 6
2 4 2 10 9 14 16 11 12 11 15 15 13 9 10 8 11 10 9 4 7 9 13 15 15 19 17 19 20 20 20 21 19 16 15 15 14 13 12 12 9 9 7 5
9 8 7 8 13 15 11 13 11 11 13 13 12 9 5 5 10 10 11 3 3 8 13 15 15 18 15 16 19 19 19 20 18 16 15 15 14 13 15 14 12 10 7 5
13 6 7 9 8 5 10 19 18 10 15 12 13 12 11 8 13 9 10 2 2 2 10 13 15 17 18 16 16 16 17 18 17 16 17 15 13 12 12 13 13 10 7 4
9 8 7 10 10 9 10 13 14 15 13 11 9 10 9 7 13 11 8 3 4 4 8 11 13 13 17 17 18 17 19 22 20 18 14 14 14 16 13 12 12 10 7 4
6 8 9 9 7 6 18 15 14 16 12 13 14 12 11 13 10 9 6 5 7 7 10 11 13 14 17 19 21 25 21 21 25 20 22 18 17 20 15 13 11 10 8 7
6 10 4 8 8 8 12 14 18 16 16 15 12 4 9 12 9 9 6 7 6 7 12 14 15 16 23 25 24 24 24 23 21 18 18 21 24 20 21 10 10 14 8 8
5 7 5 12 5 7 12 16 15 15 14 9 12 11 12 9 11 8 7 1 9 10 12 15 18 20 21 25 25 25 24 28 27 13 17 20 25 21 26 16 15 10 11 10
7 10 9 14 4 8 10 14 16 16 13 12 12 9 11 13 13 9 6 2 9 14 15 18 19 19 26 28 27 24 17 11 11 14 21 19 25 26 19 16 13 12 12 10
9 8 9 11 12 13 13 5 6 12 12 12 10 12 13 14 14 12 4 5 8 14 18 19 19 27 30 31 30 22 17 23 25 27 25 25 22 19 20 17 15 13 11 9
5 7 8 9 12 15 17 6 7 10 13 11 12 14 13 13 10 16 7 1 8 13 16 21 26 30 31 32 31 21 14 11 20 21 25 22 22 22 22 17 16 14 12 10
5 6 8 11 9 15 14 10 8 6 11 14 15 15 16 15 11 7 7 3 8 12 19 24 28 30 31 32 28 18 15 14 20 21 19 20 19 19 19 17 15 15 14 12
8 6 10 10 10 9 8 8 4 9 6 15 14 12 12 8 5 8 3 1 6 10 15 21 25 28 29 29 26 20 14 13 16 22 23 22 21 21 21 19 17 17 14 14
11 9 7 6 6 12 12 1 8 12 11 13 11 9 9 7 4 6 6 3 5 9 13 15 19 20 23 25 23 15 15 18 20 24 25 23 22 19 19 19 17 16 15 15
7 5 6 4 5 2 8 6 10 10 10 8 9 7 6 5 5 4 5 6 5 13 14 15 18 20 20 21 13 12 14 18 25 30 26 22 19 17 17 18 17 16 15 15
4 3 5 3 6 8 6 6 6 5 7 9 8 8 6 3 2 5 7 7 4 9 13 14 20 20 16 12 11 15 20 24 26 24 23 21 20 19 17 15 15 13 13 13
5 4 5 8 6 6 4 5 9 7 8 7 5 4 6 7 1 8 8 7 8 9 9 9 17 16 15 14 13 17 20 24 25 24 21 20 18 16 16 12 10 8 8 9
7 7 8 3 5 4 5 11 13 9 5 7 5 4 3 4 4 9 9 9 8 9 10 10 10 11 11 16 16 15 16 20 23 24 21 18 18 17 14 13 11 8 9 14
Wind_Direction
206 223 221 228 227 285 256 268 275 101 39 304 290 305 295 180 202 201 200 192 196 201 198 197 201 204 208 211 204 201 200 200 198 203 206 213 222 237 251 266 270 256 247 232
197 230 236 237 253 226 238 249 246 272 223 302 295 295 354 198 205 211 206 202 203 200 202 199 202 205 208 211 212 207 203 196 195 206 212 217 224 239 257 270 267 246 214 215
237 228 229 225 222 236 239 247 254 296 313 269 274 265 186 162 220 219 218 215 205 204 199 199 198 205 211 210 210 211 208 201 197 199 205 208 216 229 258 269 268 246 210 207
236 225 224 225 236 225 242 217 258 253 266 276 243 295 223 155 213 210 217 217 214 204 204 204 198 198 209 211 208 207 207 210 209 206 213 213 216 222 256 256 239 204 173 181
213 219 219 229 227 221 246 228 253 260 265 262 263 251 278 190 273 211 213 214 217 205 206 204 207 201 203 201 197 193 192 198 205 206 206 202 206 213 216 211 200 161 151 166
258 219 245 239 226 243 245 217 236 249 258 261 256 243 275 248 324 322 144 212 208 208 205 202 203 192 191 188 185 183 186 185 188 192 192 194 200 206 205 193 185 174 159 148
197 216 205 234 227 205 218 226 237 234 233 245 247 244 257 313 295 314 341 218 206 198 196 200 195 190 185 185 182 180 182 182 183 184 187 193 194 199 199 188 178 164 154 161
217 188 204 205 234 206 217 234 232 231 239 246 144 252 259 328 316 279 292 235 194 201 191 200 193 193 189 188 182 180 184 183 179 182 183 183 188 188 185 181 165 170 165 154
191 214 150 229 212 236 196 234 247 266 243 281 268 216 255 257 295 271 276 241 196 194 193 193 193 192 194 188 185 185 181 181 181 183 181 178 180 187 174 163 164 162 166 154
130 256 177 161 213 228 258 268 209 230 254 240 251 239 276 283 306 308 342 316 207 177 189 192 189 187 188 183 183 183 181 180 182 180 180 182 179 178 170 160 165 171 166 161
235 250 135 185 198 199 199 233 239 273 224 257 252 250 260 316 298 327 322 345 335 185 181 184 181 183 167 170 174 179 176 176 178 175 178 177 177 178 169 167 168 171 174 176
214 263 238 225 140 267 273 213 231 224 228 240 277 287 303 286 289 292 303 34 18 273 174 181 177 162 150 153 158 166 167 165 169 162 161 172 167 170 180 176 166 167 179 189
174 237 224 213 191 203 236 235 254 252 253 277 271 273 290 284 287 275 277 289 191 181 169 173 161 157 145 136 146 152 161 157 157 157 159 165 160 161 171 179 171 169 179 173
235 267 270 300 350 330 204 226 228 251 239 245 248 269 298 299 277 289 262 243 243 165 159 163 157 151 146 134 135 130 148 152 152 161 168 169 160 161 155 179 180 173 172 154
249 267 261 281 295 271 266 251 221 245 252 274 291 293 301 305 306 334 343 312 204 157 159 152 141 142 128 130 142 153 155 157 162 175 168 156 160 169 144 175 173 181 154 142
231 281 274 280 237 265 249 240 236 225 240 248 272 290 280 313 302 322 349 72 170 158 159 146 140 127 137 147 151 148 152 167 184 164 159 153 156 160 143 193 173 139 137 141
270 280 270 275 276 289 252 237 233 238 219 239 253 273 316 303 309 341 341 237 172 154 152 144 142 149 150 153 150 155 160 161 160 152 154 155 160 159 166 173 154 149 147 139
271 260 277 274 276 254 273 37 303 247 218 243 270 286 292 299 288 305 320 267 170 159 155 151 149 158 163 166 165 161 173 180 169 147 146 151 153 153 161 164 155 150 140 136
249 279 278 275 260 258 264 270 240 229 238 243 248 269 290 292 301 289 83 196 162 166 158 163 161 160 169 172 173 183 172 169 154 145 142 149 154 154 154 153 155 143 141 138
238 253 268 271 278 278 294 30 354 320 256 5 352 333 335 337 282 48 25 98 156 170 172 168 163 164 170 176 176 179 187 157 150 155 156 158 156 154 153 151 150 149 153 145
211 235 248 253 264 280 30 5 347 251 322 344 343 340 332 311 357 346 353 209 189 182 176 167 163 170 173 173 177 183 180 168 158 150 151 160 162 158 149 150 158 153 149 140
252 237 229 231 281 276 21 232 321 341 324 331 333 345 332 326 350 9 17 333 172 162 156 161 159 164 172 172 173 179 170 160 156 148 150 153 152 151 152 153 155 153 145 144
240 259 318 311 349 61 332 327 310 314 316 334 321 308 333 319 22 60 59 43 149 142 155 168 161 161 163 164 174 163 152 153 146 141 144 146 146 148 152 153 156 156 157 159
224 255 256 288 139 357 67 47 10 353 318 309 308 276 286 293 24 115 117 116 93 124 150 160 149 145 148 174 189 160 157 152 143 139 139 141 146 149 154 156 162 165 171 168
354 160 230 246 247 141 134 19 354 340 344 339 323 272 290 271 219 135 128 137 136 127 137 166 159 156 150 143 142 157 161 154 145 142 144 143 143 147 148 150 161 175 171 175
201 229 236 325 67 320 339 333 316 298 311 359 320 291 7 299 181 134 125 121 122 119 126 121 125 133 128 131 142 153 159 154 149 142 142 147 149 152 152 155 159 171 169 186
Height
747 759 765 752 746 748 758 763 766 757 752 757 752 749 740 743 751 752 753 757 759 762 764 770 778 783 787 791 796 800 803 806 810 813 816 818 818 819 820 820 821 822 821 821
760 764 742 738 741 756 759 764 761 752 749 754 750 750 736 734 745 745 747 749 754 756 759 765 771 777 782 787 792 797 801 805 807 810 812 814 816 817 818 820 820 822 820 820
757 746 736 751 757 763 758 762 756 767 754 744 753 752 743 738 738 740 740 740 743 750 754 758 764 770 775 781 786 792 797 801 804 808 810 813 814 817 818 818 819 819 820 820
754 740 756 757 758 753 764 742 755 763 769 776 750 779 743 736 741 741 737 737 736 742 746 750 754 762 769 774 781 787 792 798 802 805 807 810 811 814 815 817 818 818 818 820
756 755 759 759 752 744 757 741 753 755 762 759 756 770 743 730 735 724 730 729 730 732 738 744 748 752 761 769 775 782 788 793 799 802 804 807 810 811 813 815 816 818 819 820
745 743 745 746 741 743 742 754 755 752 758 779 754 759 751 734 731 723 718 720 723 727 733 738 745 750 759 766 773 778 783 788 793 797 801 804 807 810 811 814 815 817 818 820
754 753 742 743 753 744 751 760 782 789 782 782 737 760 747 722 714 714 717 715 717 720 729 733 739 746 756 762 767 774 779 783 787 793 797 801 804 808 810 812 811 813 816 818
761 769 747 738 745 750 754 750 769 799 783 761 737 770 744 712 709 707 709 711 713 716 721 728 734 742 751 756 763 768 774 780 785 790 794 797 802 805 807 810 812 813 815 818
758 760 737 736 735 739 746 761 732 750 740 761 743 735 722 711 710 705 704 706 712 714 717 723 729 738 744 752 759 765 772 780 786 790 793 795 799 804 805 809 812 814 817 818
740 763 738 736 735 734 740 729 762 754 784 787 757 754 749 728 721 707 702 703 701 708 715 719 725 732 740 748 757 765 772 777 783 788 792 797 800 802 806 809 813 817 819 820
731 744 748 740 748 744 750 750 744 734 741 766 769 751 707 718 712 710 705 701 701 702 709 714 721 729 739 747 753 762 769 774 780 784 790 794 798 802 804 808 811 816 819 820
732 732 749 741 724 722 724 734 732 756 764 749 749 747 697 701 701 699 702 700 702 703 704 711 718 729 738 746 754 762 767 773 779 783 787 792 795 800 805 808 810 814 817 820
734 740 752 749 736 730 741 730 725 720 722 747 757 746 694 695 698 695 702 699 701 706 707 714 720 731 738 747 753 759 765 768 774 781 786 792 795 795 802 808 810 812 817 819
732 726 736 746 738 724 738 731 724 726 742 738 733 731 713 703 700 694 694 698 699 706 711 715 722 731 739 747 755 758 766 771 771 776 778 785 789 795 797 806 810 812 816 817
727 738 734 728 727 729 728 724 722 733 725 738 723 725 714 701 697 695 701 701 704 708 710 717 724 733 746 750 757 759 762 766 772 776 780 779 781 794 792 807 811 812 815 819
723 741 734 738 725 729 735 722 720 721 722 723 721 724 697 691 689 694 699 704 704 708 711 717 726 738 747 751 756 760 762 762 762 767 776 777 781 791 786 808 809 814 817 820
733 732 738 747 727 730 742 722 716 714 711 715 729 709 693 697 694 696 702 700 700 704 711 719 728 740 744 749 755 758 760 763 766 769 770 777 782 788 797 803 808 814 817 820
734 738 736 747 734 766 716 698 701 706 706 703 705 703 697 694 687 687 691 697 698 701 710 717 724 734 741 745 750 755 755 753 755 754 765 775 783 789 795 803 810 814 815 819
730 736 745 751 746 731 715 708 714 718 716 697 702 696 691 686 686 688 684 696 698 702 708 712 716 725 734 739 745 750 756 759 760 764 765 776 782 789 797 804 808 812 816 820
731 733 746 744 761 762 721 715 711 708 733 713 714 702 700 698 711 703 701 700 701 705 706 707 711 721 729 737 745 751 753 756 757 762 769 775 784 790 795 801 807 811 815 817
741 743 747 739 745 734 718 717 714 742 735 720 717 713 713 711 708 707 708 707 705 708 711 710 715 720 727 735 744 749 754 756 759 760 767 777 784 791 794 799 805 809 813 814
744 743 740 736 752 756 723 721 738 730 721 720 716 715 716 709 708 715 714 715 710 712 716 720 724 730 735 738 742 748 752 755 759 763 770 777 783 789 794 798 804 807 809 814
751 734 738 734 736 724 720 727 722 721 723 719 718 716 713 711 709 717 720 722 714 715 722 726 726 732 737 742 747 750 755 760 760 760 769 776 782 789 794 799 804 807 810 812
735 737 739 741 726 726 726 724 723 721 720 715 712 710 709 709 706 713 719 723 725 723 725 725 728 735 741 746 748 751 755 757 763 767 773 779 785 790 796 801 805 806 808 809
733 740 735 733 725 726 722 722 722 720 718 714 710 708 706 703 702 708 717 722 724 727 729 729 729 736 741 745 752 755 759 759 760 766 774 779 785 791 796 800 804 807 808 809
729 730 732 733 721 726 723 721 718 719 716 713 711 708 706 704 703 708 718 723 725 727 730 734 738 741 743 743 751 758 762 763 764 767 773 780 785 790 794 799 804 805 808 811